CW0003 Weather Reports


Display with metric or nautical units.
time (UTC)temp
F
wind
direction
speed
MPH
gust
MPH
rain 1hr
in
rain 24hr
in
rain mn
in
humidity
%
barometer
mb
20170428194816 83 211 0.0 0.0 0.00 0.03 0.03 51 1010.9
20170428193317 82 227 0.0 0.0 0.00 0.03 0.03 54 1011.0
20170428191812 82 257 0.0 0.0 0.00 0.03 0.03 53 1010.8
20170428190309 81 206 0.0 0.0 0.00 0.03 0.03 53 1011.0
20170428184800 81 269 0.0 0.0 0.00 0.03 0.03 57 1011.2
20170428183255 80 200 0.0 0.0 0.00 0.03 0.03 62 1011.8
20170428181748 79 243 0.0 0.0 0.00 0.03 0.03 61 1012.2
20170428180247 79 179 0.0 0.0 0.00 0.03 0.03 64 1012.3
20170428174802 79 216 0.0 0.0 0.00 0.03 0.03 62 1012.4
20170428173238 79 229 0.0 0.0 0.00 0.03 0.03 65 1012.2
20170428171733 77 165 0.0 0.0 0.00 0.03 0.03 66 1012.2
20170428170234 76 266 0.0 0.0 0.00 0.03 0.03 68 1012.2
20170428164728 74 265 0.0 0.0 0.00 0.03 0.03 75 1012.3
20170428163223 74 155 0.0 0.0 0.00 0.03 0.03 76 1012.5
20170428161715 72 233 0.0 0.0 0.00 0.03 0.03 75 1012.7
20170428160211 72 161 0.0 0.0 0.00 0.03 0.03 80 1013.1
20170428154700 70 149 0.0 0.0 0.00 0.03 0.03 79 1013.0
20170428153154 69 192 0.0 0.0 0.00 0.03 0.03 85 1013.2
20170428151702 66 161 0.0 0.0 0.00 0.03 0.03 89 1013.1
20170428150146 65 232 0.0 0.0 0.00 0.03 0.03 89 1012.9
20170428144637 63 209 0.0 0.0 0.00 0.03 0.03 92 1012.9
20170428143147 63 219 0.0 0.0 0.00 0.03 0.03 92 1012.8
20170428141636 62 175 0.0 0.0 0.00 0.03 0.03 92 1012.8
20170428140128 62 173 0.0 0.0 0.00 0.03 0.03 94 1012.8
20170428134635 62 161 0.0 0.0 0.00 0.03 0.03 94 1012.7
20170428133132 61 160 0.0 0.0 0.00 0.03 0.03 96 1012.5
20170428131621 61 160 0.0 0.0 0.01 0.03 0.03 97 1012.5
20170428130119 60 160 0.0 0.0 0.01 0.03 0.03 97 1012.7
20170428124625 60 159 0.0 0.0 0.02 0.03 0.03 97 1012.4
20170428123116 59 156 0.0 0.0 0.02 0.03 0.03 97 1012.8
20170428121610 59 164 0.0 0.0 0.01 0.02 0.02 97 1012.9
20170428120106 59 163 0.0 0.0 0.02 0.02 0.02 97 1012.5
20170428114558 59 163 0.0 0.0 0.01 0.01 0.01 97 1012.7
20170428113129 58 163 0.0 0.0 0.01 0.01 0.01 97 1012.4
20170428111539 58 163 0.0 0.0 0.01 0.01 0.01 97 1012.4
20170428110040 58 163 0.0 0.0 0.00 0.00 0.00 97 1012.3
20170428104530 58 163 0.0 0.0 0.00 0.00 0.00 97 1012.3
20170428103045 58 163 0.0 0.0 0.00 0.00 0.00 97 1012.1
20170428101622 58 163 0.0 0.0 0.00 0.00 0.00 97 1011.9
20170428100214 58 163 0.0 0.0 0.00 0.00 0.00 96 1012.0
20170428094552 58 163 0.0 0.0 0.00 0.00 0.00 96 1011.8
20170428093052 58 163 0.0 0.0 0.00 0.00 0.00 96 1011.7
20170428091541 58 163 0.0 0.0 0.00 0.00 0.00 96 1011.5
20170428090039 58 163 0.0 0.0 0.00 0.00 0.00 96 1011.5
20170428084535 58 163 0.0 0.0 0.00 0.01 0.00 96 1011.8
20170428083036 58 163 0.0 0.0 0.00 0.01 0.00 96 1012.0
20170428081520 58 163 0.0 0.0 0.00 0.01 0.00 96 1011.8
20170428080021 58 163 0.0 0.0 0.00 0.01 0.00 96 1011.8
20170428074522 58 173 0.0 0.0 0.00 0.01 0.00 96 1011.9
20170428073015 58 173 0.0 0.0 0.00 0.01 0.00 96 1011.7
20170428071515 58 160 0.0 0.0 0.00 0.01 0.00 96 1011.6
20170428070016 57 177 0.0 0.0 0.00 0.01 0.00 96 1011.6
20170428064505 57 144 0.0 0.0 0.00 0.01 0.00 95 1011.5
20170428063008 56 144 0.0 0.0 0.00 0.01 0.00 95 1011.5
20170428061451 56 144 0.0 0.0 0.00 0.01 0.00 95 1011.5
20170428055946 56 144 0.0 0.0 0.00 0.01 0.00 94 1011.6
20170428054537 56 143 0.0 0.0 0.00 0.01 0.00 94 1011.8
20170428053027 56 143 0.0 0.0 0.00 0.01 0.00 94 1011.9
20170428051524 56 143 0.0 0.0 0.00 0.01 0.00 94 1011.7
20170428050030 56 143 0.0 0.0 0.00 0.01 0.00 94 1011.8
20170428044522 56 143 0.0 0.0 0.00 0.01 0.00 93 1012.0
20170428042958 56 143 0.0 0.0 0.00 0.01 0.00 93 1012.0
20170428041455 56 143 0.0 0.0 0.00 0.01 0.00 93 1011.9
20170428035948 56 143 0.0 0.0 0.00 0.02 0.01 92 1012.0
20170428034450 56 143 0.0 0.0 0.00 0.02 0.01 92 1011.8
20170428032934 56 143 0.0 0.0 0.00 0.02 0.01 92 1012.0
20170428031431 56 143 0.0 0.0 0.00 0.02 0.01 91 1012.0
20170428025922 56 143 0.0 0.0 0.00 0.02 0.01 91 1012.1
20170428024424 56 143 0.0 0.0 0.00 0.02 0.01 90 1012.3
20170428023004 56 143 0.0 0.0 0.00 0.02 0.01 89 1012.4
20170428021500 56 143 0.0 0.0 0.00 0.02 0.01 89 1012.4
20170428015955 56 143 0.0 0.0 0.00 0.02 0.01 89 1012.3
20170428014506 56 143 0.0 0.0 0.00 0.02 0.01 88 1012.3
20170428012950 56 143 0.0 0.0 0.00 0.02 0.01 88 1012.3
20170428011449 56 143 0.0 0.0 0.00 0.02 0.01 87 1012.3
20170428005958 57 143 0.0 0.0 0.00 0.02 0.01 86 1012.3
20170428004507 57 136 0.0 0.0 0.00 0.02 0.01 85 1012.3
20170428002942 58 149 0.0 0.0 0.00 0.02 0.01 84 1012.1
20170428001443 59 142 0.0 0.0 0.00 0.02 0.01 83 1012.0
20170427235941 60 148 0.0 0.0 0.00 0.02 0.01 81 1011.6
20170427234444 61 131 0.0 0.0 0.00 0.02 0.01 80 1011.5
20170427232936 63 119 0.0 0.0 0.00 0.02 0.01 77 1011.3
20170427231430 65 105 0.0 0.0 0.00 0.02 0.01 75 1011.0
20170427225939 66 139 0.0 0.0 0.00 0.02 0.01 75 1010.6
20170427224429 67 99 0.0 0.0 0.00 0.02 0.01 78 1010.5
20170427222925 67 104 0.0 0.0 0.00 0.02 0.01 78 1010.4
20170427221423 67 104 0.0 0.0 0.00 0.02 0.01 78 1010.5
20170427215932 67 167 0.0 0.0 0.00 0.03 0.01 76 1010.7
20170427214419 68 167 0.0 0.0 0.00 0.03 0.01 76 1010.9
20170427212913 67 167 0.0 0.0 0.00 0.03 0.01 78 1010.9
20170427211410 67 167 0.0 0.0 0.00 0.03 0.01 77 1010.9
20170427205905 67 167 0.0 0.0 0.00 0.03 0.01 77 1010.9
20170427204411 67 167 0.0 0.0 0.00 0.03 0.01 78 1011.0
20170427202901 66 167 0.0 0.0 0.00 0.03 0.01 77 1011.1
20170427201357 66 162 0.0 0.0 0.00 0.03 0.01 78 1011.1
20170427195855 65 162 0.0 0.0 0.00 0.03 0.01 81 1011.2